Rochester, NY

5:19 PM EST on November 18, 2017 (GMT -0500)
Greater Rochester International

Weather History for KROC - May, 2013

Change the Weather History Date:

Tuesday, May 7, 2013

  Actual Average Record
Temperature  
Mean Temperature 64 °F 54 °F  
Max Temperature 77 °F 65 °F 88 °F (1930)
Min Temperature 51 °F 44 °F 26 °F (1970)
Degree Days  
Heating Degree Days 1 11  
Month to date heating degree days 9 86  
Since 1 July heating degree days 5833 6389  
Cooling Degree Days 0 0  
Month to date cooling degree days 5 0  
Year to date cooling degree days 6 4  
Growing Degree Days 14 (Base 50)    
Moisture  
Dew Point 50 °F    
Average Humidity 63    
Maximum Humidity 83    
Minimum Humidity 43    
Precipitation  
Precipitation 0.00 in 0.08 in 1.19 in (1880)
Month to date precipitation T 0.63  
Year to date precipitation 7.87 10.22  
Snow  
Snow 0.00 in 0.00 in 10.70 in (1989)
Month to date snowfall 0.0 0.2  
Since 1 July snowfall 78.1 99.3  
Snow Depth 0.00 in    
Sea Level Pressure  
Sea Level Pressure 30.08 in    
Wind  
Wind Speed 5 mph (East)    
Max Wind Speed 16 mph    
Max Gust Speed 20 mph    
Visibility 10 miles    
Events      
T = Trace of Precipitation, MM = Missing Value Source: NWS Daily Summary

Daily Weather History Graph

Daily Weather History Graph

Search for Another Location

Airport or City:

Trip Planner

Search our weather history database for the weather conditions in past years. The results will help you decide how hot, cold, wet, or windy it might be!

Date:

Astronomy

May. 07, 2013 Rise Set
Actual Time 5:56 AM EDT 8:19 PM EDT
Civil Twilight 5:24 AM EDT 8:50 PM EDT
Nautical Twilight 4:44 AM EDT 9:30 PM EDT
Astronomical Twilight 4:00 AM EDT 10:15 PM EDT
Moon 4:32 AM EDT (5/7) 6:14 PM EDT (5/7)
Length of Visible Light 15h 26m
Length of Day
14h 23m
Waning Crescent, 5% of the Moon is Illuminated
May 7
Waning Crescent
May 9
New
May 18
First Quarter
May 25
Full
May 31
Last Quarter

Hourly Weather History & Observations

Time (EDT) Temp. Dew Point Humidity Pressure Visibility Wind Dir Wind Speed Gust Speed Precip Events Conditions
12:54 AM 61.0 °F 46.9 °F 60% 30.08 in 10.0 mi South 6.9 mph - N/A   Partly Cloudy
1:54 AM 57.9 °F 46.9 °F 67% 30.07 in 10.0 mi SW 5.8 mph - N/A   Partly Cloudy
2:54 AM 59.0 °F 46.9 °F 64% 30.07 in 10.0 mi SW 4.6 mph - N/A   Partly Cloudy
3:54 AM 57.0 °F 46.9 °F 69% 30.08 in 10.0 mi Calm Calm - N/A   Partly Cloudy
4:54 AM 54.0 °F 48.0 °F 80% 30.09 in 10.0 mi SSW 3.5 mph - N/A   Scattered Clouds
5:54 AM 51.8 °F 46.4 °F 82% 30.09 in 10.0 mi Calm Calm - N/A   Mostly Cloudy
6:54 AM 54.0 °F 48.0 °F 80% 30.12 in 10.0 mi Calm Calm - N/A   Mostly Cloudy
7:54 AM 60.1 °F 50.0 °F 69% 30.13 in 10.0 mi WSW 3.5 mph - N/A   Mostly Cloudy
8:54 AM 64.0 °F 51.1 °F 63% 30.13 in 10.0 mi SSW 4.6 mph - N/A   Mostly Cloudy
9:54 AM 66.9 °F 52.0 °F 59% 30.14 in 10.0 mi Calm Calm - N/A   Mostly Cloudy
10:54 AM 70.0 °F 52.0 °F 53% 30.13 in 10.0 mi Calm Calm - N/A   Mostly Cloudy
11:54 AM 73.0 °F 51.1 °F 46% 30.12 in 10.0 mi East 4.6 mph - N/A   Mostly Cloudy
12:54 PM 75.0 °F 51.1 °F 43% 30.09 in 10.0 mi Variable 4.6 mph - N/A   Mostly Cloudy
1:54 PM 75.9 °F 52.0 °F 43% 30.08 in 10.0 mi NNE 6.9 mph - N/A   Mostly Cloudy
2:54 PM 75.0 °F 52.0 °F 44% 30.07 in 10.0 mi NE 11.5 mph - N/A   Mostly Cloudy
3:54 PM 73.9 °F 52.0 °F 46% 30.05 in 10.0 mi NE 11.5 mph - N/A   Mostly Cloudy
4:54 PM 75.0 °F 52.0 °F 44% 30.03 in 10.0 mi NE 11.5 mph - N/A   Mostly Cloudy
5:54 PM 73.0 °F 51.1 °F 46% 30.03 in 10.0 mi NE 13.8 mph - N/A   Mostly Cloudy
6:54 PM 71.1 °F 50.0 °F 47% 30.03 in 10.0 mi ENE 11.5 mph - N/A   Mostly Cloudy
7:54 PM 68.0 °F 50.0 °F 52% 30.03 in 10.0 mi ENE 5.8 mph - N/A   Mostly Cloudy
8:54 PM 64.9 °F 48.0 °F 54% 30.04 in 10.0 mi NNE 4.6 mph - N/A   Mostly Cloudy
9:54 PM 64.0 °F 48.9 °F 58% 30.05 in 10.0 mi East 5.8 mph - N/A   Mostly Cloudy
10:54 PM 63.0 °F 48.9 °F 60% 30.05 in 10.0 mi East 4.6 mph - N/A   Mostly Cloudy
11:54 PM 62.1 °F 48.0 °F 60% 30.06 in 10.0 mi Calm Calm - N/A   Mostly Cloudy